{"data":{"norad_id":58944,"epoch":"2026-09-20T07:39:20.475072Z","epoch_age_seconds":171296,"freshness":"FRESH","line1":"1 58944U 24027P   26263.31898698  .00002546  00000+0  86482-4 0  9994","line2":"2 58944  53.1591 124.4032 0000754  86.8913 273.2176 15.34393619147131","mean_motion":15.34393619,"eccentricity":7.54e-5,"inclination_deg":53.1591,"raan_deg":124.4032,"arg_perigee_deg":86.8913,"mean_anomaly_deg":273.2176,"bstar":8.6482e-5,"rev_number":14713,"period_min":93.848148360945,"perigee_km":462.20640516544,"apogee_km":463.23800673369,"semimajor_km":6840.8592059496,"source":"CELESTRAK","updated_at":"2026-09-21T09:00:33.998683Z"}}